Wind_Speed
9 10 11 11 2 4 4 5 4 4 4 6 5 3 8 11 8 8 12 13 13 11 10 10 12 11 11 10 11 13 13 11 8 8 8 7 8 7 6 6 6 7 5 4
9 13 7 3 6 8 9 5 8 4 5 6 2 5 5 11 14 14 11 12 14 13 11 12 11 12 13 12 11 14 14 13 10 8 7 5 6 7 6 7 7 8 6 5
14 3 4 11 11 10 9 4 2 4 7 6 6 7 7 11 11 14 12 11 14 14 13 12 14 14 14 14 14 14 15 15 12 10 8 7 7 5 8 8 9 8 7 6
10 11 8 12 15 11 10 3 3 6 8 3 3 1 7 9 12 13 15 14 18 16 15 13 16 18 17 16 15 15 15 16 14 13 10 9 12 11 9 11 9 8 8 7
6 10 13 13 11 3 2 3 5 4 3 5 5 6 7 4 9 13 15 18 19 17 16 16 16 17 18 17 17 17 16 17 14 14 11 9 10 7 9 9 8 7 8 7
8 1 5 7 3 6 4 7 6 7 4 10 7 7 7 4 1 2 12 14 16 18 17 15 18 16 16 17 19 19 18 19 17 14 13 12 8 6 6 9 11 10 10 9
8 10 6 9 10 7 11 12 8 8 7 2 6 7 8 3 2 1 3 12 16 16 16 16 15 18 18 18 20 19 19 19 19 16 14 14 13 10 8 8 11 9 11 11
11 12 14 13 10 6 12 12 10 3 5 1 3 3 6 3 2 2 2 5 9 15 15 15 17 19 19 19 19 19 20 19 19 18 16 15 14 12 11 10 9 10 9 9
7 4 6 5 5 8 8 9 5 6 5 7 3 2 6 3 4 4 2 2 4 10 14 16 17 20 20 20 21 21 19 19 20 20 18 16 14 14 12 11 11 10 10 7
3 5 7 7 8 4 8 2 7 8 3 5 5 3 3 2 3 1 3 4 5 2 5 11 15 18 19 20 21 19 20 20 20 18 18 18 16 15 15 13 13 11 9 11
7 7 10 9 9 7 6 9 7 7 5 7 4 4 6 3 3 4 6 4 5 4 2 6 11 18 18 18 18 19 19 20 20 20 20 19 17 16 15 16 15 14 12 11
13 7 9 6 4 3 7 10 6 8 10 6 7 6 7 5 5 3 5 5 6 5 2 4 9 13 16 20 19 19 18 20 21 20 20 20 20 19 18 18 17 16 16 14
10 7 6 9 10 7 8 7 11 8 10 10 9 4 7 7 6 3 3 4 3 3 3 2 4 9 13 17 19 19 19 18 18 19 20 20 21 21 22 21 20 18 17 17
8 9 10 3 4 5 5 9 11 15 11 9 9 8 10 8 7 7 6 4 2 3 3 3 4 5 8 11 14 15 16 17 19 18 19 20 22 23 23 22 22 21 20 20
10 13 8 1 1 5 9 8 11 13 13 10 7 4 9 5 4 7 6 5 4 3 2 3 3 6 8 9 9 10 13 16 16 19 20 21 21 23 22 23 23 22 22 21
9 7 8 7 4 6 9 10 9 10 9 9 11 10 7 4 3 7 7 6 6 5 2 2 3 4 7 8 6 6 12 16 18 19 22 23 21 21 22 20 22 23 22 22
13 7 9 12 8 6 11 14 13 13 13 11 14 6 5 6 7 8 6 6 5 4 3 2 2 1 1 1 1 4 7 9 12 17 19 20 23 23 22 21 21 22 24 22
13 12 9 7 7 13 1 1 5 9 11 10 11 8 3 7 6 6 4 6 6 5 1 2 1 1 2 2 4 6 9 10 12 15 17 20 22 24 23 22 23 22 22 23
11 12 7 7 12 4 6 7 8 10 10 9 7 4 10 8 10 7 6 5 5 5 3 2 3 4 5 6 6 7 9 11 15 16 16 16 20 23 25 25 26 24 23 23
11 12 10 9 12 13 7 6 8 2 10 9 8 8 9 8 9 10 9 5 4 4 4 4 4 5 6 7 8 9 10 11 14 16 16 16 17 19 22 25 26 24 22 21
13 13 15 11 10 8 3 6 9 9 3 8 11 7 6 4 6 7 6 4 2 3 6 6 6 7 7 8 7 10 11 13 13 13 12 12 13 16 18 20 22 22 21 20
15 12 11 14 13 14 11 11 14 4 2 6 8 7 7 8 5 3 1 4 6 8 9 8 8 9 8 8 9 11 13 11 10 11 9 7 8 6 8 9 10 15 17 19
14 13 11 10 12 2 16 12 14 3 4 6 7 8 8 7 4 2 4 6 7 9 9 7 8 9 9 9 9 12 13 11 7 10 8 8 8 6 4 5 4 5 7 13
7 2 6 5 9 10 14 14 7 8 7 7 7 9 9 6 4 2 3 4 5 7 9 9 8 9 10 9 9 11 12 11 7 9 11 10 7 6 6 7 7 10 13 14
2 10 9 9 3 6 9 15 12 9 7 6 8 10 9 6 4 2 3 4 7 7 9 9 10 10 10 9 10 10 8 8 7 13 13 11 7 6 5 4 4 7 11 14
5 7 8 6 9 10 10 17 16 12 12 10 11 11 8 4 2 1 4 6 7 8 8 9 10 10 10 10 11 11 8 7 14 15 11 8 8 8 10 12 14 7 4 10
Wind_Direction
201 224 217 205 298 10 329 344 23 86 142 210 228 244 181 183 196 206 229 207 202 207 192 186 187 182 178 179 187 187 190 194 201 211 199 182 180 177 173 171 148 148 161 193
193 230 226 313 289 272 282 306 83 103 163 239 205 240 183 202 201 211 216 225 212 202 200 193 195 194 191 185 184 191 194 194 194 187 185 192 193 185 187 176 169 160 168 192
241 131 272 238 243 252 241 307 112 44 172 236 268 216 189 196 212 207 195 238 242 223 212 206 205 205 200 192 187 185 190 193 192 189 190 193 188 180 187 180 172 182 181 190
240 243 231 241 238 245 269 72 182 156 222 81 262 107 166 183 197 202 223 212 229 209 222 217 205 205 203 198 189 186 182 190 191 193 196 196 206 187 176 174 169 175 182 186
133 201 219 227 228 217 352 153 207 242 265 277 154 266 108 177 217 216 211 201 219 237 219 214 212 203 205 194 191 188 182 189 193 199 205 206 222 178 179 178 172 182 184 186
275 110 222 232 197 221 132 160 187 221 272 241 83 296 143 136 338 128 203 211 214 212 219 221 210 207 203 200 196 187 187 191 198 202 202 203 209 234 186 190 186 190 193 191
177 190 147 173 134 151 206 207 219 214 200 303 79 268 48 74 181 355 213 216 213 221 217 216 215 205 206 203 200 193 191 193 195 206 207 205 206 210 211 206 208 198 201 199
197 168 172 189 249 199 220 264 269 253 264 217 144 259 89 97 161 143 221 249 239 209 217 219 215 213 207 205 203 202 197 199 195 201 208 211 212 209 215 213 218 208 209 209
193 150 140 197 188 242 148 226 331 296 205 259 77 144 189 163 202 220 133 160 203 222 214 215 214 216 213 210 207 204 204 206 203 200 206 209 212 222 222 222 214 216 219 208
175 153 189 134 170 168 286 68 215 217 259 264 97 278 0 82 88 131 231 107 103 131 215 211 222 219 218 217 215 213 212 210 206 204 208 212 213 219 222 222 225 226 223 222
244 258 151 174 211 188 177 213 233 309 329 307 243 118 78 108 110 54 94 128 85 95 161 213 221 220 222 226 216 217 208 210 207 204 206 209 212 216 221 224 226 230 229 224
213 250 176 177 100 276 270 286 234 237 190 234 318 319 113 127 139 114 101 87 63 34 335 232 206 217 205 217 214 215 213 207 212 210 208 210 210 213 215 224 229 230 230 228
185 238 189 189 175 184 229 201 258 274 291 277 276 96 131 151 167 164 162 123 89 40 19 134 195 200 207 204 209 208 215 219 213 214 215 217 217 219 222 221 222 226 230 232
209 242 244 271 61 0 196 229 243 254 250 251 209 279 154 182 191 187 186 166 118 73 85 99 163 179 205 213 201 213 220 214 220 223 221 223 224 226 227 227 222 223 222 225
233 229 231 277 344 274 280 247 228 237 259 287 316 265 261 101 221 188 167 174 170 153 108 115 146 155 181 185 206 220 230 231 224 222 223 229 231 229 229 230 226 224 223 224
217 209 219 211 209 238 248 237 238 236 251 249 266 263 57 91 143 172 191 176 177 159 146 111 106 114 142 172 191 216 237 233 227 227 231 235 230 228 227 230 230 226 225 222
199 178 210 240 189 216 241 237 239 253 254 259 257 268 128 147 171 170 174 185 187 165 139 121 109 87 104 165 247 250 250 245 243 242 239 237 229 226 227 229 230 227 226 221
205 203 213 241 179 228 318 65 276 274 261 264 255 267 145 140 142 154 166 167 168 170 197 187 195 255 289 281 270 272 263 257 251 247 243 239 236 229 228 225 224 225 226 225
198 198 204 206 221 227 219 208 219 230 251 212 238 207 159 156 144 132 131 159 167 185 197 232 264 275 287 288 283 271 266 265 259 257 258 249 237 236 229 223 227 228 227 224
207 221 214 203 243 238 264 192 206 265 257 211 207 178 165 179 227 120 132 150 164 185 211 246 260 272 281 284 276 268 261 257 253 253 262 262 251 239 230 227 225 222 220 220
189 210 215 200 231 238 138 179 167 222 41 156 191 191 169 224 40 103 123 165 193 224 227 242 262 274 282 288 282 274 270 265 260 251 263 268 258 246 238 237 230 224 221 220
185 195 210 228 219 238 149 168 202 221 120 192 194 188 170 127 145 144 238 285 286 269 235 233 260 279 284 288 281 272 269 271 257 241 245 263 261 243 236 220 216 222 208 200
209 207 208 214 215 126 174 204 211 224 212 193 201 177 194 171 175 220 291 301 291 279 267 261 266 274 283 286 288 285 278 271 252 227 219 204 207 221 237 233 190 182 189 196
196 192 216 162 198 179 194 209 213 196 226 191 189 158 175 191 196 252 293 301 292 282 272 272 272 273 284 294 297 288 277 277 255 206 196 202 177 191 194 204 212 222 209 197
89 165 171 198 125 176 213 219 205 205 203 193 157 169 182 188 195 282 293 295 293 284 273 271 282 292 295 299 301 297 273 268 228 177 162 149 141 156 132 138 186 202 212 208
192 152 202 205 167 208 203 209 201 197 193 185 174 167 161 180 211 250 301 319 302 291 273 273 291 293 302 296 310 304 273 229 186 155 143 140 129 125 114 108 92 100 166 232
Height
771 777 780 766 763 771 776 780 787 786 783 789 790 792 797 794 809 808 798 793 793 797 800 805 811 816 820 825 830 833 836 838 841 842 843 844 844 846 848 849 850 851 852 852
781 783 762 765 770 775 775 782 788 788 785 787 786 788 785 790 796 800 802 793 791 794 798 805 809 813 817 822 827 831 834 837 839 841 842 843 844 846 847 848 850 851 852 852
777 767 762 769 772 779 773 779 785 786 786 780 784 786 790 787 789 789 795 799 793 792 793 798 804 809 813 818 824 828 831 834 837 840 842 844 845 846 847 848 849 851 852 853
772 759 772 772 775 768 778 769 776 782 781 799 776 803 783 781 788 791 788 793 792 790 791 792 797 803 808 814 820 825 829 832 835 837 839 843 843 842 842 846 847 850 852 852
768 769 773 775 767 764 774 770 775 776 777 782 783 785 780 778 785 781 781 787 790 786 785 786 791 796 803 809 815 821 826 829 832 835 837 841 841 840 842 844 847 849 851 852
763 756 760 760 762 763 765 775 779 775 778 790 782 786 777 772 773 769 768 773 775 781 779 783 787 793 799 805 810 816 822 826 829 832 836 838 840 842 841 843 846 847 848 850
764 764 757 756 770 766 768 772 789 797 792 790 773 784 769 762 764 766 767 766 771 774 775 780 784 789 795 801 806 811 817 822 826 829 832 835 838 841 843 844 843 842 844 847
771 786 763 753 757 765 769 763 778 808 798 787 776 788 773 759 758 762 765 765 762 765 775 776 781 787 792 798 803 807 813 817 822 826 829 832 834 839 840 841 839 841 842 844
767 768 752 753 752 753 769 780 754 774 775 792 773 770 759 757 760 760 762 764 765 764 766 773 778 783 788 794 799 804 809 814 818 821 826 828 831 835 836 838 840 840 842 842
748 772 752 758 753 757 759 750 779 773 803 807 780 785 775 766 765 760 759 760 764 765 766 770 775 779 784 789 795 801 805 810 814 817 822 825 828 831 834 836 837 838 840 842
740 752 767 758 760 757 767 767 765 761 772 788 790 777 753 760 762 761 760 761 762 765 768 771 773 778 784 787 792 796 801 806 810 813 817 820 823 827 830 832 834 836 837 839
742 742 763 757 751 750 750 756 755 775 783 772 780 777 745 754 757 760 761 762 764 768 768 768 772 774 780 786 789 793 796 800 805 808 812 815 818 821 824 827 830 832 834 835
741 750 771 772 763 756 759 753 750 750 752 775 785 769 748 753 758 760 761 762 767 769 769 769 770 773 777 781 786 789 793 796 800 805 808 811 813 816 818 821 824 826 829 832
735 738 753 764 758 748 763 760 755 753 765 762 764 760 754 755 760 762 762 762 766 768 770 770 770 775 777 780 783 788 790 794 797 800 803 805 808 811 813 815 817 820 823 826
734 754 750 749 752 754 756 758 759 763 756 769 754 756 751 752 752 758 759 763 766 767 768 769 770 774 780 782 785 786 788 791 793 795 797 800 803 806 809 810 812 814 816 819
734 751 751 759 756 758 764 755 755 755 756 760 756 761 751 755 759 762 763 764 766 766 767 769 772 774 778 780 782 782 785 786 788 789 790 794 797 800 802 805 807 809 811 813
739 746 759 766 757 764 776 756 754 752 747 752 764 751 753 763 764 764 765 765 765 767 767 768 771 773 776 778 779 780 782 783 783 783 785 788 790 793 795 798 801 802 805 807
738 746 749 759 766 794 748 742 745 751 747 745 748 746 754 757 760 761 761 763 766 767 769 770 771 773 774 776 778 779 780 780 781 781 781 782 784 786 788 791 794 796 799 801
725 739 755 767 770 756 752 749 754 757 755 743 747 749 755 756 759 764 762 762 764 766 769 770 772 774 775 776 776 777 777 777 777 776 777 777 777 778 780 783 786 789 792 794
731 731 747 758 768 776 746 732 733 739 766 736 742 747 750 753 759 759 760 766 766 768 769 769 771 772 773 773 774 775 775 775 775 773 773 773 772 772 773 776 778 781 784 785
745 744 751 752 761 747 731 732 736 775 758 731 736 739 747 752 753 757 759 762 765 766 768 769 770 770 770 771 772 771 771 769 769 769 770 769 769 769 769 771 773 774 776 779
735 746 745 743 756 767 725 737 754 735 729 731 734 737 746 751 754 756 758 760 762 763 765 767 767 766 767 767 768 769 767 765 765 765 766 766 767 767 767 768 769 769 771 775
731 719 726 730 736 721 720 723 723 723 729 732 734 736 741 748 753 754 757 758 760 761 761 763 765 764 765 765 765 764 763 761 761 762 763 765 766 767 768 768 769 770 770 772
717 718 719 734 724 722 720 718 720 723 725 727 730 735 743 747 749 752 755 757 759 760 761 761 762 762 761 761 762 761 759 759 758 759 761 764 765 767 766 767 768 769 771 774
711 721 719 722 724 722 722 717 719 724 727 729 732 737 741 744 748 751 753 756 758 759 760 760 760 759 760 760 760 759 758 757 757 758 760 763 765 767 767 767 767 768 769 771
713 713 721 720 710 716 712 714 717 723 728 730 733 738 742 745 748 752 753 755 757 758 758 759 759 758 759 757 756 755 755 755 755 756 760 763 766 767 768 769 770 770 770 770